This is the latest recevied weather packets stored in our database for station/object N5ZP. If no packets are shown the sender has not sent any weather packets the latest 10 day(s).
| Time | Temp. | Humidity | Pressure | Rain* | Wind** | Luminosity | Snow |
|---|---|---|---|---|---|---|---|
| 1777822663 | 25.56° C | 45% | 1018.4 hPa | 0 mm | - | 576 W/m² | - |
| 1777822360 | 25° C | 46% | 1018.5 hPa | 0 mm | - | 563 W/m² | - |
| 1777822058 | 25° C | 46% | 1018.7 hPa | 0 mm | - | 553 W/m² | - |
| 1777821756 | 25° C | 45% | 1018.6 hPa | 0 mm | - | 539 W/m² | - |
| 1777821452 | 25° C | 47% | 1018.4 hPa | 0 mm | - | 521 W/m² | - |
| 1777821150 | 25° C | 47% | 1018.5 hPa | 0 mm | - | 509 W/m² | - |
| 1777820847 | 25° C | 46% | 1018.4 hPa | 0 mm | - | 495 W/m² | - |
| 1777820543 | 24.44° C | 48% | 1018.3 hPa | 0 mm | - | 480 W/m² | - |
| 1777820239 | 24.44° C | 48% | 1018.3 hPa | 0 mm | - | 462 W/m² | - |
| 1777819937 | 24.44° C | 51% | 1018.3 hPa | 0 mm | - | 449 W/m² | - |
| 1777819634 | 24.44° C | 50% | 1018.4 hPa | 0 mm | - | 436 W/m² | - |
| 1777819332 | 25° C | 47% | 1018.2 hPa | 0 mm | - | 422 W/m² | - |
| 1777819028 | 25.56° C | 49% | 1018.3 hPa | 0 mm | - | 405 W/m² | - |
| 1777818726 | 25° C | 51% | 1018.5 hPa | 0 mm | - | 389 W/m² | - |
| 1777818422 | 24.44° C | 51% | 1018.2 hPa | 0 mm | - | 374 W/m² | - |
| 1777818119 | 23.89° C | 53% | 1018.4 hPa | 0 mm | - | 355 W/m² | - |
| 1777817815 | 23.33° C | 52% | 1018.4 hPa | 0 mm | - | 342 W/m² | - |
| 1777817513 | 22.78° C | 54% | 1018.3 hPa | 0 mm | - | 327 W/m² | - |
| 1777817209 | 22.78° C | 54% | 1018.1 hPa | 0 mm | - | 305 W/m² | - |
| 1777816907 | 22.78° C | 55% | 1018.3 hPa | 0 mm | - | 297 W/m² | - |
| 1777816603 | 22.78° C | 56% | 1018.4 hPa | 0 mm | - | 281 W/m² | - |
| 1777816300 | 21.67° C | 59% | 1018.1 hPa | 0 mm | - | 266 W/m² | - |
| 1777815998 | 21.11° C | 59% | 1018.1 hPa | 0 mm | - | 250 W/m² | - |
| 1777815696 | 20° C | 61% | 1018.1 hPa | 0 mm | - | 236 W/m² | - |
| 1777815393 | 20.56° C | 63% | 1018.1 hPa | 0 mm | - | 222 W/m² | - |
* Rain latest hour (hover to see other rain measurements)
** Current wind speed in m/s (hover to see current wind gust speed)